Massena, NY

12:43 AM EST on January 19, 2018 (GMT -0500)
Massena International-Richards

Weather History for KMSS - July, 2013

Change the Weather History Date:

Friday, July 26, 2013

  Actual Average Record
Temperature  
Mean Temperature 61 °F 69 °F  
Max Temperature 77 °F 80 °F 92 °F (1989)
Min Temperature 44 °F 58 °F 44 °F (2013)
Degree Days  
Heating Degree Days 4 1  
Month to date heating degree days 26  
Since 1 June heating degree days 122  
Since 1 July heating degree days 26  
Cooling Degree Days 0 5  
Month to date cooling degree days 190 127  
Year to date cooling degree days 290 216  
Since 1 June cooling degree days 267 202  
Growing Degree Days 10 (Base 50)    
Moisture  
Dew Point 51 °F    
Average Humidity 72    
Maximum Humidity 100    
Minimum Humidity 43    
Precipitation  
Precipitation 0.00 in 0.12 in 2.51 in (1986)
Month to date precipitation 3.13 2.98  
Year to date precipitation 19.05 18.43  
Sea Level Pressure  
Sea Level Pressure 30.10 in    
Wind  
Wind Speed 3 mph (ENE)    
Max Wind Speed 12 mph    
Max Gust Speed 16 mph    
Visibility 8 miles    
Events Fog    
T = Trace of Precipitation, MM = Missing Value Source: NWS Daily Summary

Daily Weather History Graph

Daily Weather History Graph

Search for Another Location

Airport or City:

Trip Planner

Search our weather history database for the weather conditions in past years. The results will help you decide how hot, cold, wet, or windy it might be!

Date:

Astronomy

Jul. 26, 2013 Rise Set
Actual Time 5:38 AM EDT 8:32 PM EDT
Civil Twilight 5:04 AM EDT 9:06 PM EDT
Nautical Twilight 4:20 AM EDT 9:50 PM EDT
Astronomical Twilight 3:28 AM EDT 10:42 PM EDT
Moon 10:29 PM EDT (7/26) 10:27 AM EDT (7/26)
Length of Visible Light 16h 02m
Length of Day
14h 54m
Waning Gibbous, 80% of the Moon is Illuminated
Jul 26
Waning Gibbous
Jul 29
Last Quarter
Aug 6
New
Aug 14
First Quarter
Aug 20
Full

Hourly Weather History & Observations

Time (EDT) Temp. Dew Point Humidity Pressure Visibility Wind Dir Wind Speed Gust Speed Precip Events Conditions
12:53 AM 50.0 °F 46.9 °F 89% 30.14 in 10.0 mi Calm Calm - N/A   Clear
1:53 AM 48.9 °F 46.9 °F 93% 30.14 in 9.0 mi Calm Calm - N/A   Clear
2:53 AM 48.0 °F 46.0 °F 93% 30.13 in 10.0 mi Calm Calm - N/A   Clear
3:53 AM 46.9 °F 44.1 °F 90% 30.14 in 10.0 mi Calm Calm - N/A   Clear
4:04 AM 46.4 °F 44.6 °F 93% 30.13 in 1.8 mi Calm Calm - N/A   Clear
4:11 AM 46.4 °F 44.6 °F 93% 30.13 in 2.0 mi Calm Calm - N/A   Partly Cloudy
4:19 AM 46.4 °F 44.6 °F 93% 30.13 in 7.0 mi Calm Calm - N/A   Partly Cloudy
4:53 AM 46.0 °F 44.1 °F 93% 30.14 in 4.0 mi Calm Calm - N/A   Clear
5:53 AM 46.0 °F 46.0 °F 100% 30.13 in 10.0 mi Calm Calm - N/A   Clear
6:53 AM 46.9 °F 46.0 °F 97% 30.14 in 10.0 mi Calm Calm - N/A   Clear
7:53 AM 52.0 °F 50.0 °F 93% 30.16 in 10.0 mi Calm Calm - N/A   Clear
8:53 AM 59.0 °F 54.0 °F 83% 30.15 in 10.0 mi Calm Calm - N/A   Clear
9:53 AM 64.9 °F 55.0 °F 70% 30.14 in 10.0 mi NNE 6.9 mph - N/A   Clear
10:53 AM 68.0 °F 54.0 °F 61% 30.14 in 10.0 mi NE 4.6 mph - N/A   Clear
11:53 AM 71.1 °F 55.0 °F 57% 30.12 in 10.0 mi ENE 3.5 mph - N/A   Clear
12:53 PM 73.0 °F 54.0 °F 51% 30.11 in 10.0 mi Variable 6.9 mph - N/A   Clear
1:53 PM 75.0 °F 52.0 °F 44% 30.09 in 10.0 mi NE 8.1 mph - N/A   Clear
2:53 PM 75.9 °F 55.9 °F 50% 30.08 in 10.0 mi ENE 9.2 mph - N/A   Clear
3:53 PM 75.9 °F 53.1 °F 45% 30.07 in 10.0 mi East 3.5 mph - N/A   Clear
4:53 PM 75.0 °F 53.1 °F 46% 30.06 in 10.0 mi ENE 8.1 mph - N/A   Clear
5:53 PM 75.0 °F 52.0 °F 44% 30.05 in 10.0 mi East 8.1 mph - N/A   Clear
6:53 PM 73.9 °F 54.0 °F 50% 30.04 in 10.0 mi ENE 8.1 mph - N/A   Clear
7:53 PM 71.1 °F 55.0 °F 57% 30.04 in 10.0 mi ENE 4.6 mph - N/A   Clear
8:53 PM 62.1 °F 55.9 °F 80% 30.04 in 10.0 mi Calm Calm - N/A   Clear
9:53 PM 57.9 °F 55.0 °F 90% 30.05 in 10.0 mi Calm Calm - N/A   Clear
10:53 PM 55.0 °F 53.1 °F 93% 30.04 in 10.0 mi Calm Calm - N/A   Clear
11:41 PM 53.6 °F 51.8 °F 94% 30.04 in 1.5 mi Calm Calm - N/A   Partly Cloudy
11:43 PM 53.6 °F 51.8 °F 94% 30.04 in 0.8 mi Calm Calm - N/A   Mist
11:53 PM 53.1 °F 51.1 °F 93% 30.04 in 0.5 mi Calm Calm - N/A Fog Fog
11:55 PM 51.8 °F 51.8 °F 100% 30.04 in 2.0 mi Calm Calm - N/A   Partly Cloudy